Regional Weather Roundup
Issued by NWS

Home | Current Version | Previous Version | Text Only | Print | Product List | Glossary On
Versions: 1 2 3 4 5 6 7 8 9 10 11 12 13 14 15 16 17 18 19 20 21 22 23 24 25 26 27 28 29 30 31 32 33 34 35 36 37 38 39 40 41 42 43 44 45 46 47 48 49 50
000
ASUS43 KLSX 261859
RWRMO

WEATHER SUMMARY FOR MISSOURI
NATIONAL WEATHER SERVICE SPRINGFIELD MO
100 PM CST FRI DEC 26 2014

NOTE: "FAIR" INDICATES FEW OR NO CLOUDS BELOW 12,000 FEET WITH NO
       SIGNIFICANT WEATHER AND/OR OBSTRUCTIONS TO VISIBILITY.
       CURRENT SKY AND/OR WEATHER CONDITIONS ARE NOT AVAILABLE FOR
       CHILLICOTHE AND FARMINGTON.

MOZ001>031-035>038-043-044-053-054-262000-
...NORTHERN AND WESTERN MISSOURI...

CITY           SKY/WX    TMP DP  RH WIND       PRES   REMARKS
KANSAS CTY INT CLOUDY    45  36  70 NW8       29.90F
KANSAS C DTWN  CLOUDY    54  42  64 SW9       29.90F
LEE`S SUMMIT   FAIR      53  43  68 S14G20    29.91F
ST JOSEPH      PTSUNNY   37  33  85 N7        29.94F
CHILLICOTHE      N/A     52  42  69 S8        29.93F
KIRKSVILLE     FAIR      53  42  66 SW12G20   29.93F

$$
MOZ066>068-077>081-088>096-101>105-262000-
...SOUTHWEST MISSOURI...

CITY           SKY/WX    TMP DP  RH WIND       PRES   REMARKS
SPRINGFIELD    CLOUDY    55  43  63 S16       29.97F
JOPLIN         CLOUDY    59  47  64 S20G31    29.93F

$$
MOZ032>034-039>042-045>050-055>058-069>072-262000-
...CENTRAL MISSOURI...

CITY           SKY/WX    TMP DP  RH WIND       PRES   REMARKS
COLUMBIA       FAIR      59  44  57 SW18      29.96F
JEFFERSON CITY PTSUNNY   61  44  53 S9        29.97F
ROLLA          FAIR      56  43  61 S17G24    29.99F
SEDALIA        FAIR      59  44  57 SW13      29.94F
OSAGE BEACH    CLOUDY    61  43  51 S13       29.97F

$$
MOZ051-052-059>065-262000-
...EAST CENTRAL MISSOURI...

CITY           SKY/WX    TMP DP  RH WIND       PRES   REMARKS
ST LOUIS INTL  NOT AVBL
SPIRIT OF STL  FAIR      58  42  55 SW14G20   30.02F
ST CHARLES     FAIR      57  44  62 S9        30.02F

$$
MOZ072>076-082>087-097>100-106>115-262000-
...SOUTH CENTRAL AND SOUTHEAST MISSOURI...

CITY           SKY/WX    TMP DP  RH WIND       PRES   REMARKS
CAPE GIRARDEAU CLOUDY    52  43  71 SW12G18   30.15F
FARMINGTON     FAIR      54  43  66 S17G29    30.09F
POPLAR BLUFF   PTSUNNY   52  40  63 S10       30.14F
WEST PLAINS    CLOUDY    52  43  71 S12G22    30.07F

$$



USA.gov is the U.S. government's official web portal to all federal, state and local government web resources and services.